TimeMDT,TemperatureF,Dew PointF,Humidity,Sea Level PressureIn,VisibilityMPH,Wind Direction,Wind SpeedMPH,Gust SpeedMPH,PrecipitationIn,Events,Conditions,WindDirDegrees,DateUTC
12:15 AM,46.4,28.4,50,29.93,10.0,WNW,12.7,-,N/A,,Mostly Cloudy,300,2013-10-03 06:15:00
12:35 AM,44.6,28.4,53,29.94,10.0,WNW,12.7,-,N/A,,Partly Cloudy,290,2013-10-03 06:35:00
12:55 AM,44.6,28.4,53,29.94,10.0,WNW,11.5,-,N/A,,Clear,290,2013-10-03 06:55:00
1:15 AM,44.6,28.4,53,29.94,10.0,WNW,13.8,-,N/A,,Clear,300,2013-10-03 07:15:00
1:35 AM,44.6,28.4,53,29.94,10.0,WNW,16.1,20.7,N/A,,Mostly Cloudy,300,2013-10-03 07:35:00
1:55 AM,46.4,28.4,50,29.95,10.0,WNW,15.0,-,N/A,,Overcast,300,2013-10-03 07:55:00
2:15 AM,46.4,28.4,50,29.96,10.0,WNW,17.3,-,N/A,,Overcast,300,2013-10-03 08:15:00
2:35 AM,46.4,28.4,50,29.97,10.0,WNW,13.8,-,N/A,,Overcast,300,2013-10-03 08:35:00
2:55 AM,44.6,28.4,53,29.98,10.0,WNW,12.7,-,N/A,,Overcast,290,2013-10-03 08:55:00
3:15 AM,44.6,28.4,53,29.98,10.0,NW,15.0,19.6,N/A,,Overcast,310,2013-10-03 09:15:00
3:35 AM,44.6,28.4,53,29.98,10.0,WNW,9.2,-,N/A,,Mostly Cloudy,300,2013-10-03 09:35:00
3:55 AM,44.6,28.4,53,29.99,10.0,WNW,10.4,-,N/A,,Mostly Cloudy,300,2013-10-03 09:55:00
4:15 AM,44.6,28.4,53,29.99,10.0,West,11.5,-,N/A,,Overcast,280,2013-10-03 10:15:00
4:55 AM,44.6,26.6,49,29.99,10.0,WNW,9.2,-,N/A,,Overcast,290,2013-10-03 10:55:00
5:15 AM,42.8,26.6,53,30.00,10.0,WNW,10.4,-,N/A,,Overcast,290,2013-10-03 11:15:00
5:35 AM,42.8,26.6,53,30.00,10.0,WNW,8.1,-,N/A,,Overcast,290,2013-10-03 11:35:00
5:55 AM,42.8,26.6,53,30.00,10.0,WNW,9.2,-,N/A,,Mostly Cloudy,290,2013-10-03 11:55:00
6:15 AM,42.8,26.6,53,30.00,10.0,WNW,9.2,-,N/A,,Scattered Clouds,290,2013-10-03 12:15:00
6:35 AM,41.0,26.6,57,30.01,10.0,WNW,9.2,-,N/A,,Clear,290,2013-10-03 12:35:00
6:55 AM,41.0,26.6,57,30.01,10.0,WNW,10.4,-,N/A,,Clear,290,2013-10-03 12:55:00
7:15 AM,41.0,26.6,57,30.02,10.0,WNW,9.2,-,N/A,,Partly Cloudy,290,2013-10-03 13:15:00
7:35 AM,41.0,26.6,57,30.02,10.0,WNW,11.5,-,N/A,,Partly Cloudy,290,2013-10-03 13:35:00
7:55 AM,41.0,26.6,57,30.02,10.0,WNW,12.7,-,N/A,,Partly Cloudy,300,2013-10-03 13:55:00
8:15 AM,42.8,26.6,53,30.03,10.0,WNW,13.8,18.4,N/A,,Clear,300,2013-10-03 14:15:00
8:35 AM,42.8,26.6,53,30.04,10.0,WNW,12.7,-,N/A,,Mostly Cloudy,300,2013-10-03 14:35:00
8:55 AM,42.8,26.6,53,30.04,10.0,WNW,12.7,-,N/A,,Overcast,290,2013-10-03 14:55:00
9:15 AM,44.6,28.4,53,30.05,10.0,WNW,16.1,-,N/A,,Overcast,290,2013-10-03 15:15:00
9:35 AM,44.6,28.4,53,30.05,10.0,WNW,16.1,-,N/A,,Mostly Cloudy,300,2013-10-03 15:35:00
9:55 AM,44.6,28.4,53,30.05,10.0,WNW,16.1,24.2,N/A,,Scattered Clouds,290,2013-10-03 15:55:00
10:15 AM,46.4,28.4,50,30.05,10.0,WNW,18.4,24.2,N/A,,Mostly Cloudy,300,2013-10-03 16:15:00
10:35 AM,46.4,28.4,50,30.05,10.0,NW,21.9,27.6,N/A,,Overcast,310,2013-10-03 16:35:00
10:55 AM,48.2,30.2,50,30.05,10.0,NW,19.6,32.2,N/A,,Overcast,310,2013-10-03 16:55:00
11:15 AM,48.2,30.2,50,30.05,10.0,NW,21.9,31.1,N/A,,Mostly Cloudy,320,2013-10-03 17:15:00
11:35 AM,50.0,30.2,47,30.05,10.0,NW,21.9,33.4,N/A,,Partly Cloudy,310,2013-10-03 17:35:00
11:55 AM,53.6,30.2,41,30.05,10.0,NW,24.2,31.1,N/A,,Partly Cloudy,320,2013-10-03 17:55:00
12:15 PM,53.6,30.2,41,30.05,10.0,NW,24.2,33.4,N/A,,Mostly Cloudy,320,2013-10-03 18:15:00
12:35 PM,51.8,28.4,41,30.05,10.0,NW,21.9,33.4,N/A,,Overcast,310,2013-10-03 18:35:00
12:55 PM,51.8,28.4,41,30.06,10.0,NW,25.3,29.9,N/A,,Overcast,320,2013-10-03 18:55:00
1:15 PM,51.8,28.4,41,30.06,10.0,NNW,24.2,29.9,N/A,,Overcast,330,2013-10-03 19:15:00
1:35 PM,51.8,28.4,41,30.07,10.0,NW,20.7,32.2,N/A,,Overcast,320,2013-10-03 19:35:00
1:55 PM,51.8,28.4,41,30.07,10.0,NW,24.2,32.2,N/A,,Overcast,320,2013-10-03 19:55:00
2:15 PM,53.6,28.4,38,30.07,10.0,NW,19.6,31.1,N/A,,Overcast,320,2013-10-03 20:15:00
2:35 PM,53.6,30.2,41,30.07,10.0,NNW,20.7,31.1,N/A,,Overcast,330,2013-10-03 20:35:00
2:55 PM,55.4,30.2,38,30.07,10.0,NW,21.9,33.4,N/A,,Overcast,310,2013-10-03 20:55:00
3:15 PM,55.4,30.2,38,30.07,10.0,NW,20.7,28.8,N/A,,Overcast,320,2013-10-03 21:15:00
3:35 PM,55.4,30.2,38,30.07,10.0,NNW,20.7,31.1,N/A,,Overcast,330,2013-10-03 21:35:00
3:55 PM,55.4,28.4,36,30.08,10.0,NNW,17.3,28.8,N/A,,Mostly Cloudy,330,2013-10-03 21:55:00
4:15 PM,55.4,30.2,38,30.08,10.0,NNW,21.9,31.1,N/A,,Mostly Cloudy,330,2013-10-03 22:15:00
4:35 PM,55.4,30.2,38,30.08,10.0,NNW,20.7,29.9,N/A,,Mostly Cloudy,340,2013-10-03 22:35:00
4:55 PM,57.2,30.2,36,30.09,10.0,NW,19.6,31.1,N/A,,Overcast,320,2013-10-03 22:55:00
5:15 PM,57.2,28.4,33,30.10,10.0,NNW,20.7,27.6,N/A,,Mostly Cloudy,330,2013-10-03 23:15:00
5:35 PM,57.2,28.4,33,30.10,10.0,NNW,20.7,29.9,N/A,,Overcast,330,2013-10-03 23:35:00
5:55 PM,55.4,30.2,38,30.11,10.0,NNW,21.9,26.5,N/A,,Mostly Cloudy,340,2013-10-03 23:55:00
6:15 PM,57.2,28.4,33,30.12,10.0,NNW,19.6,27.6,N/A,,Mostly Cloudy,340,2013-10-04 00:15:00
6:35 PM,55.4,28.4,36,30.12,10.0,NNW,17.3,28.8,N/A,,Partly Cloudy,340,2013-10-04 00:35:00
6:55 PM,53.6,30.2,41,30.14,10.0,NNW,20.7,26.5,N/A,,Clear,340,2013-10-04 00:55:00
7:15 PM,53.6,28.4,38,30.15,10.0,NNW,18.4,26.5,N/A,,Clear,340,2013-10-04 01:15:00
7:35 PM,51.8,28.4,41,30.16,10.0,NNW,16.1,23.0,N/A,,Clear,330,2013-10-04 01:35:00
7:55 PM,50.0,30.2,47,30.17,10.0,NNW,13.8,21.9,N/A,,Clear,330,2013-10-04 01:55:00
8:15 PM,48.2,28.4,46,30.19,10.0,NNW,13.8,18.4,N/A,,Clear,330,2013-10-04 02:15:00
8:35 PM,48.2,28.4,46,30.20,10.0,NNW,15.0,21.9,N/A,,Clear,330,2013-10-04 02:35:00
8:55 PM,48.2,28.4,46,30.21,10.0,NNW,15.0,19.6,N/A,,Clear,340,2013-10-04 02:55:00
9:15 PM,48.2,28.4,46,30.22,10.0,NNW,13.8,-,N/A,,Clear,330,2013-10-04 03:15:00
9:35 PM,46.4,28.4,50,30.22,10.0,NNW,13.8,-,N/A,,Clear,330,2013-10-04 03:35:00
10:35 PM,44.6,28.4,53,30.25,10.0,NW,9.2,-,N/A,,Clear,320,2013-10-04 04:35:00
10:55 PM,44.6,28.4,53,30.25,10.0,NNW,13.8,-,N/A,,Clear,330,2013-10-04 04:55:00
11:15 PM,44.6,28.4,53,30.26,10.0,NNW,12.7,-,N/A,,Clear,330,2013-10-04 05:15:00
11:35 PM,44.6,28.4,53,30.27,10.0,NW,10.4,-,N/A,,Clear,320,2013-10-04 05:35:00
11:55 PM,44.6,28.4,53,30.28,10.0,NW,9.2,-,N/A,,Clear,320,2013-10-04 05:55:00